This is the latest recevied weather packets stored in our database for station/object KG5MMT-12. If no packets are shown the sender has not sent any weather packets the latest 10 day(s).
| Time | Temp. | Humidity | Pressure | Rain* | Wind** | Luminosity | Snow |
|---|---|---|---|---|---|---|---|
| 1788194050 | 24.44° C | 41% | 0 hPa | 0 mm | - | - | - |
| 1788193750 | 23.89° C | 40% | 0 hPa | 0 mm | - | - | - |
| 1788193450 | 23.89° C | 42% | 0 hPa | 0 mm | - | - | - |
| 1788193150 | 23.33° C | 43% | 0 hPa | 0 mm | - | - | - |
| 1788192850 | 23.33° C | 44% | 0 hPa | 0 mm | - | - | - |
| 1788192550 | 22.78° C | 44% | 0 hPa | 0 mm | - | - | - |
| 1788192250 | 22.78° C | 45% | 0 hPa | 0 mm | - | - | - |
| 1788191950 | 22.22° C | 45% | 0 hPa | 0 mm | - | - | - |
| 1788191650 | 22.22° C | 46% | 0 hPa | 0 mm | - | - | - |
| 1788191350 | 22.22° C | 45% | 0 hPa | 0 mm | - | - | - |
| 1788191050 | 22.22° C | 46% | 0 hPa | 0 mm | - | - | - |
| 1788190750 | 22.22° C | 48% | 0 hPa | 0 mm | - | - | - |
| 1788190450 | 22.22° C | 50% | 0 hPa | 0 mm | - | - | - |
| 1788190150 | 22.22° C | 47% | 0 hPa | 0 mm | - | - | - |
| 1788189850 | 21.67° C | 48% | 0 hPa | 0 mm | - | - | - |
| 1788189550 | 21.67° C | 51% | 0 hPa | 0 mm | - | - | - |
| 1788189250 | 21.11° C | 49% | 0 hPa | 0 mm | - | - | - |
| 1788188950 | 21.11° C | 52% | 0 hPa | 0 mm | - | - | - |
| 1788188650 | 20.56° C | 52% | 0 hPa | 0 mm | - | - | - |
| 1788188350 | 20.56° C | 53% | 0 hPa | 0 mm | - | - | - |
| 1788188051 | 20.56° C | 53% | 0 hPa | 0 mm | - | - | - |
| 1788187750 | 19.44° C | 61% | 0 hPa | 0 mm | - | - | - |
| 1788187450 | 18.33° C | 65% | 0 hPa | 0 mm | - | - | - |
| 1788187150 | 17.22° C | 77% | 0 hPa | 0 mm | - | - | - |
| 1788186850 | 16.67° C | 82% | 0 hPa | 0 mm | - | - | - |
* Rain latest hour (hover to see other rain measurements)
** Current wind speed in m/s (hover to see current wind gust speed)